RH
39 41 40 40 39 39 39 37 35 37 37 37 39 37 30 28 31 33 36 38 33 28 27 26 24 21 16 12 8 7 6 4 3 3 3 4 4 4 5 5 5 5 5 6 6 6 6 6 6 6 6 7 7 8 8 9 8 11 18 19 15 16 15 14 16 13 11 12 12 13 13 14 15 14 13 14 14 15 15 15 14 15 13 12 13 13 12 12
40 42 42 44 43 41 41 37 35 34 32 32 35 35 31 32 35 35 35 34 30 28 28 26 25 21 14 9 7 6 5 4 3 3 3 4 4 4 4 4 5 6 6 6 6 6 6 6 6 6 6 7 7 8 8 9 10 14 22 20 16 17 14 12 13 10 10 11 11 13 12 13 13 13 13 15 16 16 16 16 15 15 14 13 14 13 14 13
40 42 43 46 44 42 40 35 31 29 25 23 26 30 32 35 35 31 28 28 27 27 27 26 25 20 14 8 6 6 5 5 3 3 4 4 4 4 4 4 5 5 6 6 6 6 7 7 7 7 7 7 8 8 9 10 10 12 19 19 16 17 14 11 10 9 9 10 12 14 13 13 13 13 14 15 16 17 17 16 15 15 13 13 14 13 14 15
39 40 42 45 43 41 37 31 28 29 27 23 23 27 32 34 30 26 25 26 26 26 25 25 23 17 11 7 6 5 6 5 4 4 4 4 4 4 4 4 4 5 6 6 6 7 7 7 8 8 7 8 8 8 10 10 9 11 15 17 15 13 12 10 10 9 9 10 12 14 14 14 14 14 14 14 16 18 17 14 13 13 11 12 13 13 15 15
36 38 39 41 39 37 32 28 29 31 32 30 27 28 30 28 26 26 28 27 26 25 25 23 17 11 7 6 5 4 6 6 4 4 4 4 4 4 4 4 5 5 6 6 6 7 7 7 8 8 8 9 9 9 10 10 10 10 12 14 13 11 10 10 10 9 10 10 12 14 14 14 14 15 15 15 16 17 15 13 13 11 11 12 12 13 14 15
33 36 37 36 35 32 28 29 31 31 35 35 32 29 25 24 26 29 29 27 27 25 23 19 11 7 7 6 5 5 6 7 5 4 4 4 4 4 5 5 5 5 6 7 7 7 7 7 8 8 9 10 12 12 11 10 10 11 11 11 11 10 10 10 10 10 10 11 12 13 13 13 14 15 15 15 15 15 14 13 13 12 12 13 13 14 15 16
33 35 36 34 33 30 30 33 31 30 35 36 33 28 25 27 29 29 28 28 27 26 22 16 11 9 8 6 5 5 6 6 5 5 5 5 5 5 5 5 5 5 6 7 7 7 7 8 8 8 10 12 12 11 11 10 10 12 12 11 10 10 10 11 10 11 11 11 12 12 12 14 15 15 16 16 14 14 15 14 13 12 14 14 15 15 15 16
35 36 36 34 34 32 33 35 31 30 33 32 31 30 30 31 30 28 28 28 26 23 18 14 11 9 7 6 6 6 6 6 5 5 5 5 5 5 6 6 5 5 6 7 7 7 7 8 8 8 11 13 12 12 12 10 10 13 13 11 11 11 10 11 11 11 11 11 12 12 13 14 16 16 17 16 14 14 15 14 13 13 14 15 16 17 17 18
37 36 35 34 35 34 34 35 32 31 32 31 32 32 30 28 28 28 28 27 23 17 12 9 8 6 6 8 8 7 7 6 5 5 5 5 5 6 6 6 6 6 6 7 7 7 8 8 9 9 10 12 12 12 12 10 11 12 12 11 11 11 11 11 12 12 11 12 13 14 15 16 16 17 17 16 14 15 15 15 15 15 15 16 17 18 19 20
37 35 33 34 35 33 34 35 34 32 32 35 35 33 28 27 28 28 27 24 19 12 9 7 7 8 9 9 8 7 6 5 5 5 5 5 6 6 6 6 7 7 7 7 7 7 8 8 9 9 9 12 12 12 12 11 12 12 11 11 12 12 12 12 12 12 13 13 14 14 17 18 16 17 17 16 16 16 16 16 16 16 16 17 18 19 21 22
37 34 33 34 34 33 35 36 34 33 33 36 37 31 28 28 29 28 25 22 17 13 12 11 10 9 8 7 6 6 6 6 5 5 5 6 6 6 7 7 8 8 8 8 7 8 8 9 9 9 10 11 12 13 13 13 12 11 10 11 12 12 12 13 13 13 14 14 14 15 17 19 17 18 17 16 16 17 17 17 17 17 18 18 19 20 22 24
36 33 34 36 36 36 36 34 35 34 32 33 33 30 28 28 28 27 24 21 18 14 12 11 9 7 6 5 5 6 6 6 6 6 6 6 7 7 8 8 9 8 8 8 8 9 9 9 9 9 11 12 13 14 13 14 12 10 12 12 15 17 14 13 13 13 14 14 14 15 16 18 19 18 17 16 17 18 18 18 18 19 19 19 20 21 23 25
33 33 35 39 39 37 35 32 34 34 30 29 29 29 29 27 24 22 19 17 15 12 9 7 6 5 5 5 6 7 7 7 7 7 7 7 7 8 9 9 9 9 9 9 9 10 10 10 10 11 11 12 14 13 13 13 11 12 14 15 17 19 17 13 13 14 13 15 14 15 17 17 20 19 16 17 18 19 20 19 20 20 20 20 21 23 24 26
35 38 40 42 42 38 34 31 33 33 29 28 29 29 29 26 23 19 14 11 9 8 7 5 5 5 5 6 7 7 7 7 7 7 7 7 8 9 9 9 9 9 10 10 9 10 11 11 10 11 12 13 13 12 16 15 15 17 14 19 20 16 19 17 15 16 14 16 16 16 19 17 19 19 16 18 19 19 20 20 20 20 21 21 22 23 25 26
36 43 44 44 43 38 33 31 32 32 29 29 29 28 27 24 21 16 12 10 7 6 6 6 6 7 6 7 7 7 8 7 8 8 8 8 9 9 9 8 9 10 10 10 10 11 12 11 11 12 13 13 12 14 20 18 20 22 13 19 24 17 23 22 16 18 16 17 17 17 20 18 18 18 16 18 20 20 20 20 20 21 22 22 22 23 25 27
34 39 39 38 39 37 32 31 32 32 30 30 30 28 24 21 17 13 10 8 8 9 8 8 7 7 7 7 7 8 8 8 8 8 8 8 8 9 9 9 10 10 11 10 11 11 12 12 11 13 13 13 17 19 20 19 21 24 15 17 21 16 21 21 17 20 18 18 19 18 20 19 19 19 18 19 20 21 21 21 21 21 22 22 23 24 26 28
32 36 35 34 36 37 32 30 31 32 32 32 30 25 20 16 13 11 9 8 9 9 8 8 7 7 7 7 7 8 8 9 9 9 9 8 8 9 9 10 11 11 11 11 11 11 12 12 12 13 14 18 25 23 19 20 20 21 18 18 20 19 19 19 20 20 19 19 20 20 20 18 18 18 18 19 19 21 22 22 22 22 22 23 24 26 27 28
29 35 33 32 35 35 32 31 30 30 32 32 29 23 19 15 12 10 11 10 9 7 7 7 6 7 8 8 8 8 9 9 9 10 9 9 9 10 10 11 11 11 12 11 10 11 11 12 13 16 18 21 26 24 19 21 20 16 17 18 20 21 20 21 22 21 20 21 21 22 21 19 19 19 19 19 20 21 22 22 22 22 23 24 26 27 28 28
27 32 28 28 32 32 32 31 30 28 28 28 24 20 18 15 11 9 10 9 7 8 8 8 7 9 9 9 9 9 9 10 10 10 9 10 10 10 11 11 12 11 11 11 11 12 12 13 14 15 18 18 21 25 23 21 20 18 19 20 21 21 21 22 24 24 23 22 22 22 22 20 19 20 19 19 21 22 22 23 23 24 24 26 27 28 28 27
27 27 26 26 29 32 34 32 29 25 21 19 17 15 14 14 12 9 8 7 6 8 8 9 8 9 10 9 9 9 9 10 11 11 10 10 10 10 11 12 13 13 13 15 14 12 15 17 17 18 23 22 21 25 24 22 23 22 23 24 24 23 23 23 24 26 24 22 24 25 23 21 19 20 20 19 23 25 25 25 25 25 26 27 28 28 27 27
31 24 21 24 24 29 34 33 27 20 16 14 11 10 10 10 10 8 7 7 7 7 8 8 8 9 9 9 9 9 9 10 11 12 11 11 11 11 11 13 14 14 17 19 15 15 18 18 17 23 28 25 24 26 24 24 26 25 25 25 26 27 25 23 24 26 25 22 24 26 23 20 18 20 21 21 25 26 26 26 26 27 28 28 28 27 26 26
36 25 17 17 21 24 29 31 27 19 15 12 10 10 10 10 9 8 8 8 8 8 8 9 9 9 9 9 10 10 10 10 10 11 12 11 12 12 12 15 17 16 20 21 17 18 21 17 16 21 26 26 27 29 26 26 28 28 27 25 26 29 27 25 25 28 28 23 22 25 23 20 18 20 22 24 25 25 25 26 27 27 28 28 27 26 25 25
37 29 16 13 18 21 23 25 23 20 17 15 14 14 13 12 11 9 9 9 9 9 9 9 9 9 9 10 10 10 10 10 11 11 12 11 12 12 12 17 22 19 21 23 19 17 16 16 19 22 23 24 25 28 28 27 27 28 28 26 27 28 25 25 26 29 29 25 24 25 25 22 20 21 24 24 25 25 26 27 28 28 28 27 26 25 25 24
37 31 19 12 14 18 21 22 20 18 14 12 12 11 11 11 10 10 10 10 11 10 10 10 10 9 10 10 10 11 11 11 13 12 12 12 12 13 12 16 22 19 19 25 23 18 15 17 22 23 24 24 21 24 26 23 23 28 29 27 28 27 23 25 27 27 27 28 28 27 26 24 22 24 25 25 26 26 27 28 28 28 27 27 26 25 25 24
37 32 24 15 11 13 16 19 20 18 15 12 10 9 8 8 9 9 10 11 13 13 11 10 10 9 10 11 10 11 11 12 13 12 12 13 12 14 14 15 16 15 19 24 22 19 17 19 21 22 24 25 22 22 23 21 22 27 29 27 26 25 24 27 29 27 28 28 27 26 28 26 24 24 25 26 28 28 28 28 29 29 28 27 26 25 24 23
38 34 29 19 11 9 10 13 14 14 13 12 11 11 9 8 9 9 11 16 15 14 12 10 11 11 10 11 11 11 11 12 13 12 12 12 13 14 14 16 15 15 19 21 19 19 19 21 23 22 24 24 22 22 23 25 24 24 27 28 27 26 26 29 29 29 30 29 26 27 30 29 24 22 24 28 30 29 28 30 29 29 28 27 26 24 23 23
42 34 30 25 17 12 10 9 8 9 9 9 9 10 9 9 9 8 12 16 13 12 13 11 11 12 13 13 12 12 11 12 13 13 13 12 14 14 13 17 16 16 20 17 16 20 21 21 22 22 23 22 21 20 23 27 26 25 27 28 28 28 28 30 29 30 32 30 29 30 30 32 29 23 25 29 28 27 28 29 30 28 27 26 24 23 23 24
42 33 27 25 22 17 13 10 9 9 9 8 8 8 9 10 10 10 12 12 10 13 14 12 12 12 14 14 13 13 13 13 13 13 13 12 14 14 14 17 18 20 20 15 16 21 21 20 21 22 21 20 20 21 24 26 24 26 29 29 30 30 31 32 31 34 36 31 31 32 29 34 33 25 28 29 24 26 28 29 31 29 27 25 24 24 24 25
39 31 25 21 19 17 14 11 10 10 9 9 9 9 10 9 9 12 14 11 11 15 14 12 13 12 14 14 13 13 13 13 14 13 13 13 13 14 15 17 19 21 19 17 20 22 20 20 22 21 20 21 21 22 26 26 24 27 30 31 33 35 35 35 34 36 37 33 33 33 29 33 33 25 27 28 24 29 30 31 33 30 27 27 26 25 25 27
36 30 23 18 17 14 12 11 9 9 8 8 8 10 9 10 16 18 14 12 13 15 15 13 13 14 14 14 13 13 13 13 14 13 12 13 13 13 15 16 17 19 21 22 23 22 21 22 24 22 20 21 22 24 28 27 26 27 28 30 32 35 34 36 40 37 34 37 38 34 30 34 35 28 27 28 30 34 32 32 35 31 29 28 27 27 28 29
37 30 22 15 14 12 11 11 11 10 8 7 8 9 8 11 22 20 12 12 14 13 15 15 16 18 18 16 14 15 17 15 14 15 14 15 16 15 15 17 16 19 27 27 22 21 22 22 25 23 21 23 22 24 28 29 29 29 29 29 29 32 31 32 39 36 34 41 40 35 34 36 37 32 29 33 35 37 34 33 34 33 31 30 30 30 31 32
38 33 25 15 11 10 9 9 11 9 7 8 7 9 12 13 16 16 12 13 13 14 17 16 17 21 21 18 15 17 19 16 15 19 20 20 21 19 18 20 18 17 24 26 20 21 23 23 25 23 23 25 22 23 27 29 32 31 30 32 33 36 37 37 40 38 38 40 35 34 37 35 34 31 30 34 34 35 36 33 32 33 33 33 34 33 34 35
39 37 31 20 11 8 8 8 9 7 7 9 7 9 16 16 13 15 16 14 12 15 18 17 19 22 21 16 15 18 18 15 16 19 21 21 20 18 19 23 22 17 19 21 19 21 24 25 25 22 24 25 22 24 25 26 29 27 28 34 36 39 43 47 47 40 37 37 32 35 38 34 32 31 33 35 32 33 34 32 32 34 35 36 37 36 36 37
38 37 32 24 16 9 8 8 8 8 7 8 8 10 13 14 14 15 16 16 16 19 21 21 20 19 17 16 17 19 17 15 18 19 20 20 17 17 18 21 22 22 23 22 19 20 22 22 22 22 24 24 23 24 25 25 28 28 30 33 34 37 39 43 46 40 36 38 37 35 36 35 32 33 37 36 33 33 32 33 35 36 38 40 40 39 39 40
37 34 28 25 20 13 9 7 8 8 7 8 13 14 12 13 15 14 16 19 18 18 20 22 20 15 17 20 20 19 16 15 18 19 19 19 17 18 19 19 22 25 24 22 21 22 21 20 22 24 24 23 23 25 27 27 28 30 32 31 34 39 38 39 43 41 40 45 46 39 36 36 31 32 40 41 37 36 35 36 39 39 41 42 42 42 42 43
32 28 24 24 23 16 9 7 8 7 7 11 14 14 17 17 13 13 17 17 16 16 16 19 19 15 17 20 20 21 18 17 18 17 18 21 19 21 22 22 24 24 21 20 23 24 20 20 25 25 23 24 25 26 26 27 28 30 31 33 35 37 38 39 40 41 44 49 46 37 34 35 31 34 45 48 45 42 41 42 42 42 43 44 44 45 46 49
23 21 22 25 22 14 8 7 8 6 7 12 12 15 21 18 12 17 20 17 17 17 13 14 16 16 17 17 19 22 18 17 20 18 18 20 19 21 25 24 24 24 23 22 22 22 21 22 26 26 22 24 26 26 26 27 29 31 32 34 34 34 39 41 40 45 53 55 46 36 36 37 34 36 44 50 51 48 47 48 46 45 46 47 48 50 52 54
18 20 23 23 17 10 8 7 7 7 8 11 14 17 20 16 15 21 21 18 18 17 13 13 13 15 18 17 17 20 18 17 22 20 18 19 17 19 24 24 24 25 24 23 22 22 24 23 25 27 25 25 26 25 27 27 28 30 31 32 33 34 40 42 43 48 53 56 51 40 38 39 37 38 43 48 51 50 48 49 49 50 51 52 54 55 56 55
21 21 19 16 11 8 8 7 7 9 10 13 17 17 17 18 19 21 22 21 19 16 14 15 15 16 19 19 18 19 18 18 20 19 17 17 16 18 21 22 24 26 25 25 24 25 25 23 25 26 25 26 25 25 29 29 28 30 30 33 35 38 43 44 44 48 51 56 58 49 40 35 37 42 44 46 50 51 50 49 51 54 55 56 57 58 57 55
19 15 12 9 8 8 9 8 9 12 11 16 21 19 19 21 21 20 21 21 18 16 16 17 17 16 17 20 19 17 19 20 19 18 17 18 18 18 21 22 24 26 26 24 24 26 26 23 25 26 25 26 25 26 29 30 31 32 33 36 37 38 43 43 42 47 51 57 64 63 48 32 34 43 44 46 51 53 53 53 54 56 56 57 58 59 57 54
11 10 10 9 7 9 10 10 14 17 16 17 21 21 22 23 21 21 22 21 19 18 18 17 18 17 17 17 16 16 19 22 22 19 19 20 18 17 22 25 24 25 25 23 24 26 25 25 27 28 25 24 25 28 29 29 32 34 35 39 41 41 44 46 47 48 51 54 59 64 53 32 31 42 45 48 52 53 55 56 56 57 56 57 58 57 55 52
8 10 10 9 9 10 11 12 16 20 19 17 18 20 23 23 20 20 20 20 20 18 18 19 20 20 19 16 16 19 19 20 21 20 19 20 18 19 25 28 26 24 23 23 25 25 25 27 29 27 24 24 26 28 30 31 33 34 36 39 42 44 44 46 51 51 51 51 52 62 60 38 31 44 49 50 53 53 54 56 57 57 57 58 57 54 52 51
8 9 10 10 10 9 10 12 15 19 20 19 19 20 23 23 20 19 20 19 19 18 19 20 20 19 19 18 18 18 17 17 20 20 20 22 21 23 28 28 26 24 22 23 24 24 25 27 27 27 27 27 28 29 30 32 32 32 36 41 42 44 46 49 54 54 52 50 52 62 60 40 36 49 52 51 54 54 55 57 58 58 57 56 55 52 51 52
9 10 11 11 10 9 11 12 13 17 22 21 19 19 20 21 20 19 20 19 18 18 19 20 19 16 18 20 19 17 16 15 17 17 19 22 23 26 30 28 26 25 23 24 24 23 25 29 30 30 30 30 32 34 34 33 33 33 38 44 44 46 51 53 53 53 52 50 54 61 56 40 41 50 51 54 56 55 56 59 60 60 58 54 50 47 49 50
10 10 10 11 11 9 11 14 14 18 25 23 17 17 18 19 19 19 19 19 18 17 17 18 18 17 19 20 19 19 18 15 15 17 19 20 22 26 28 27 27 26 26 28 27 23 26 30 30 30 33 35 34 35 34 35 37 36 39 43 44 46 51 51 52 53 53 54 56 59 54 42 42 48 52 55 57 56 58 60 61 61 57 52 49 48 50 52
10 10 10 11 11 10 11 14 13 16 24 21 14 15 17 16 16 18 18 17 17 16 16 17 17 17 18 18 17 19 20 18 17 18 19 20 22 26 29 28 28 29 29 30 27 27 30 31 30 31 34 34 31 31 34 37 38 36 38 42 45 49 50 53 57 56 56 59 57 54 56 49 43 48 52 54 56 58 58 58 58 56 51 49 50 51 53 55
10 11 12 11 10 10 11 13 12 12 16 14 10 13 16 15 15 15 17 18 17 16 15 16 17 15 15 16 16 18 21 21 20 20 20 22 24 26 28 30 31 31 31 29 27 29 31 30 31 33 33 32 31 32 34 38 37 37 38 42 47 52 52 54 58 55 56 63 57 49 55 55 48 49 53 54 57 57 56 54 51 48 47 48 50 51 53 56
10 11 12 11 10 11 10 11 13 13 13 13 13 14 15 16 15 13 15 17 17 17 15 14 17 18 17 18 16 17 21 21 21 21 22 24 26 25 25 30 33 33 30 28 26 29 31 32 33 34 34 33 34 34 36 39 39 39 43 46 49 54 55 54 55 53 56 61 55 48 52 55 52 52 54 56 58 54 50 48 46 47 49 49 50 52 54 58
10 10 11 11 11 11 12 12 14 14 14 15 15 14 14 16 15 13 15 17 16 17 15 12 15 20 23 22 17 17 21 19 16 20 23 24 25 24 22 25 30 32 29 27 28 28 31 36 38 38 37 35 36 38 40 42 43 44 48 51 51 53 56 55 54 54 55 56 54 51 52 53 54 56 56 56 54 50 45 46 49 51 50 50 52 55 57 61
10 10 10 10 9 11 14 15 14 13 13 13 11 12 14 17 16 14 16 14 12 16 17 14 17 23 27 24 19 19 22 20 15 18 22 22 23 26 23 21 27 33 31 30 32 30 30 37 42 42 38 36 38 42 44 45 47 48 49 51 51 52 54 56 55 55 56 56 55 54 54 54 55 55 55 54 50 47 46 49 51 51 51 54 57 58 61 64
10 11 10 9 10 12 14 15 14 13 13 13 11 12 15 18 17 15 15 14 13 16 19 18 20 25 28 26 23 22 22 22 19 19 20 20 20 22 21 20 27 36 35 34 35 33 32 39 44 45 42 40 41 44 45 45 47 49 50 51 52 53 55 57 57 56 56 54 53 55 57 56 53 53 55 54 51 50 50 51 53 55 56 59 60 62 64 64
10 10 10 9 10 12 13 14 13 11 12 13 13 13 14 16 18 16 14 15 17 18 19 19 19 22 24 25 25 23 22 21 21 21 21 21 20 20 21 21 27 35 38 38 40 40 40 42 45 47 48 46 45 46 45 43 45 49 49 48 49 52 53 54 54 54 52 51 53 57 57 56 57 58 58 55 52 52 54 55 58 60 61 61 62 64 64 61